South Hill, VA

1:32 AM EDT on May 28, 2017 (GMT -0400)
Mecklenburg-Brunswick Regional

Weather History for KAVC - January, 2013

Change the Weather History Date:

Wednesday, January 23, 2013

  Actual Average (KEMV) Record (KEMV)
Temperature  
Mean Temperature 26 °F -  
Max Temperature 39 °F 47 °F 70 °F (1986)
Min Temperature 14 °F 24 °F 8 °F (2014)
Degree Days  
Heating Degree Days 38    
Moisture  
Dew Point 9 °F    
Average Humidity 55    
Maximum Humidity 73    
Minimum Humidity 26    
Precipitation  
Precipitation 0.00 in - - ()
Sea Level Pressure  
Sea Level Pressure 30.30 in    
Wind  
Wind Speed 4 mph (NW)    
Max Wind Speed 10 mph    
Max Gust Speed 17 mph    
Visibility 10 miles    
Events      
Averages and records for this station are not official NWS values.
T = Trace of Precipitation, MM = Missing Value Source: NWS Daily Summary

Daily Weather History Graph

Daily Weather History Graph

Search for Another Location

Airport or City:

Trip Planner

Search our weather history database for the weather conditions in past years. The results will help you decide how hot, cold, wet, or windy it might be!

Date:

Astronomy

Jan. 23, 2013 Rise Set
Actual Time 7:20 AM EST 5:28 PM EST
Civil Twilight 6:52 AM EST 5:56 PM EST
Nautical Twilight 6:21 AM EST 6:27 PM EST
Astronomical Twilight 5:50 AM EST 6:58 PM EST
Moon 2:38 PM EST (1/23) 4:28 AM EST (1/23)
Length of Visible Light 11h 03m
Length of Day
10h 08m
Waxing Gibbous, 89% of the Moon is Illuminated
Jan 23
Waxing Gibbous
Jan 26
Full
Feb 3
Last Quarter
Feb 10
New
Feb 17
First Quarter

Hourly Weather History & Observations

Time (EST) Temp. Windchill Dew Point Humidity Pressure Visibility Wind Dir Wind Speed Gust Speed Precip Events Conditions
12:19 AM 17.6 °F 6.4 °F 8.6 °F 68% 30.32 in 10.0 mi NNW 9.2 mph - N/A   Clear
12:58 AM 17.6 °F 10.7 °F 8.6 °F 68% 30.33 in 10.0 mi NNW 4.6 mph - N/A   Clear
1:19 AM 17.6 °F 9.3 °F 6.8 °F 63% 30.33 in 10.0 mi North 5.8 mph - N/A   Clear
1:59 AM 19.4 °F 12.8 °F 3.2 °F 49% 30.33 in 10.0 mi North 4.6 mph - N/A   Clear
2:20 AM 17.6 °F - 5.0 °F 58% 30.34 in 10.0 mi Calm Calm - N/A   Clear
2:41 AM 17.6 °F - 8.6 °F 68% 30.35 in 10.0 mi Calm Calm - N/A   Mostly Cloudy
3:01 AM 19.4 °F - 6.8 °F 58% 30.35 in 10.0 mi Calm Calm - N/A   Overcast
3:17 AM 19.4 °F - 6.8 °F 58% 30.35 in 10.0 mi Calm Calm - N/A   Overcast
3:37 AM 19.4 °F - 10.4 °F 68% 30.36 in 10.0 mi Calm Calm - N/A   Overcast
4:44 AM 17.6 °F - 8.6 °F 68% 30.35 in 10.0 mi Calm Calm - N/A   Scattered Clouds
4:59 AM 15.8 °F - 5.0 °F 62% 30.35 in 10.0 mi Calm Calm - N/A   Clear
5:17 AM 15.8 °F - 6.8 °F 68% 30.36 in 10.0 mi Calm Calm - N/A   Clear
5:40 AM 15.8 °F - 6.8 °F 68% 30.36 in 10.0 mi Calm Calm - N/A   Clear
6:20 AM 14.0 °F - 6.8 °F 73% 30.37 in 10.0 mi Calm Calm - N/A   Clear
6:37 AM 14.0 °F - 6.8 °F 73% 30.38 in 10.0 mi Calm Calm - N/A   Clear
8:00 AM 15.8 °F - 6.8 °F 68% 30.39 in 10.0 mi Calm Calm - N/A   Clear
9:17 AM 26.6 °F 20.0 °F 8.6 °F 47% 30.39 in 10.0 mi North 5.8 mph - N/A   Clear
9:40 AM 30.2 °F 24.3 °F 10.4 °F 44% 30.40 in 10.0 mi WNW 5.8 mph - N/A   Clear
9:59 AM 32.0 °F 28.7 °F 12.2 °F 44% 30.40 in 10.0 mi NW 3.5 mph - N/A   Clear
12:19 PM 35.6 °F 29.2 °F 8.6 °F 33% 30.33 in 10.0 mi WNW 8.1 mph - N/A   Clear
12:37 PM 37.4 °F 30.8 °F 6.8 °F 28% 30.32 in 10.0 mi West 9.2 mph - N/A   Clear
1:17 PM 37.4 °F 30.3 °F - N/A% 30.29 in 10.0 mi West 10.4 mph 17.3 mph N/A   Clear
2:57 PM 39.2 °F 33.0 °F 6.8 °F 26% 30.26 in 10.0 mi WNW 9.2 mph - N/A   Mostly Cloudy
3:17 PM 37.4 °F 33.8 °F 5.0 °F 26% 30.25 in 10.0 mi WNW 4.6 mph - N/A   Overcast
3:37 PM 37.4 °F 32.8 °F 6.8 °F 28% 30.25 in 10.0 mi West 5.8 mph - N/A   Overcast
6:17 PM 33.8 °F - 12.2 °F 41% 30.23 in 10.0 mi Calm Calm - N/A   Overcast
6:37 PM 32.0 °F - 15.8 °F 51% 30.23 in 10.0 mi Calm Calm - N/A   Overcast
8:59 PM 30.2 °F - 19.4 °F 64% 30.18 in 10.0 mi Calm Calm - N/A   Overcast
10:00 PM 32.0 °F 28.7 °F 15.8 °F 51% 30.16 in 10.0 mi SSE 3.5 mph - N/A   Overcast
10:20 PM 30.2 °F - 15.8 °F 55% 30.15 in 10.0 mi Calm Calm - N/A   Overcast
10:39 PM 30.2 °F - 17.6 °F 60% 30.14 in 10.0 mi Calm Calm - N/A   Overcast
10:59 PM 28.4 °F - 17.6 °F 64% 30.13 in 10.0 mi Calm Calm - N/A   Mostly Cloudy